Weather in Karaulbazar

Uzbekistan     39°29′59″N   64°47′27″E
temp.,
°C
wind,
m/s
gust,
m/s
humid.,
%
clouds,
%
prec.,
mm/h
press.,
hPa
HPBL,
m
19 april, mon
mon1923:00+22se45340 0.0 101880
02:00+20ese223789 0.0 101716
05:00+18e44469 0.0 101641
08:00+20ese4641100 0.0 1015213
11:00+24se232999 0.0 1014872
14:00+26wsw2222100 0.0 10132473
17:00+26nw3321100 0.0 10112643
20:00+25nnw2225100 0.0 101247
20 april, tue
tue2023:00+23nnw452795 0.0 101199
02:00+21nnw4632100 0.0 1011134
05:00+20nne443363 0.0 101148
08:00+22nw112897 0.0 101393
11:00+25w34215 0.0 10131500
14:00+28wsw4619100 0.0 10113254
17:00+28wsw671787 0.0 10093577
20:00+26wnw91121100 0.0 1009708
21 april, wed
wed2123:00+22nw81236100 0.0 1010441
02:00+18n81160100 0.0 1012628
05:00+16nnw6966100 0.0 1014568
08:00+17n78625 0.0 1016748
11:00+19nnw66450 0.0 10171136
14:00+22n66300 0.0 10171522
17:00+21n88240 0.0 10171604
20:00+18nne91028100 0.0 1018980
22 april, thu
thu2223:00+15nne91132100 0.0 1019589
02:00+13n794099 0.0 1019268
05:00+13nne464595 0.0 1019128
08:00+15ne6742100 0.0 1020411
11:00+19nne66319 0.0 1021842
14:00+23n55180 0.0 10201296
17:00+24nne55150 0.0 10191315
20:00+22nne56225 0.0 1019151
23 april, fri
fri2323:00+17ene7123438 0.0 1020380
02:00+16nne5840100 0.0 1020233
05:00+14ne58470 0.0 1020168
08:00+15ene45425 0.0 1020227
11:00+21ene22270 0.0 1020641
14:00+25ene23192 0.0 10181276
17:00+27ene33155 0.0 10171676
20:00+25ne332123 0.0 101647